"Period start","avg(HW err(1)/warn(2) (#))","avg(Visibility (m))","avg(Weather code (#))","avg(Precip intensity (mm/h))","min(HW err(1)/warn(2) (#))","max(HW err(1)/warn(2) (#))","std(HW err(1)/warn(2) (#))","med(HW err(1)/warn(2) (#))","min(Visibility (m))","max(Visibility (m))","std(Visibility (m))","med(Visibility (m))","min(Weather code (#))","max(Weather code (#))","std(Weather code (#))","med(Weather code (#))","min(Precip intensity (mm/h))","max(Precip intensity (mm/h))","std(Precip intensity (mm/h))","med(Precip intensity (mm/h))"
2017-11-13 00:00:00,2,6236,78,0.13,2,2,0,2,5149,7862,844,6446,77,78,0,78,0.05,0.25,0.05,0.12
2017-11-13 00:10:00,2,6466,77,0.10,2,2,0,2,5692,7570,535,6316,77,78,0,77,0.05,0.10,0.02,0.10
2017-11-13 00:20:00,2,6236,75,0.16,2,2,0,2,5456,6822,387,6292,71,77,3,77,0.10,0.30,0.06,0.15
2017-11-13 00:30:00,2,6583,77,0.12,2,2,0,2,5391,7744,762,6714,77,77,0,77,0.05,0.15,0.03,0.12
2017-11-13 00:40:00,2,6841,77,0.14,2,2,0,2,5485,8120,754,6890,77,77,0,77,0.05,0.25,0.06,0.15
2017-11-13 00:50:00,2,7449,78,0.10,2,2,0,2,6191,8783,797,7426,77,78,0,78,0.05,0.15,0.04,0.10
2017-11-13 01:00:00,2,7123,77,0.11,2,2,0,2,6140,8718,842,6844,77,77,0,77,0.05,0.15,0.03,0.10
2017-11-13 01:10:00,2,6640,74,0.12,2,2,0,2,6286,7163,310,6544,71,77,3,74,0.10,0.25,0.05,0.10
2017-11-13 01:20:00,2,5853,76,0.12,2,2,0,2,5055,7139,696,5684,71,77,2,77,0.10,0.20,0.03,0.10
2017-11-13 01:30:00,2,5556,75,0.14,2,2,0,2,4755,6934,618,5527,71,77,3,77,0.05,0.20,0.06,0.15
2017-11-13 01:40:00,2,7077,75,0.09,2,2,0,2,4119,9428,1389,7456,71,77,3,77,0.05,0.20,0.05,0.05
2017-11-13 01:50:00,2,7449,77,0.09,2,2,0,2,5111,10924,1866,6996,77,77,0,77,0.00,0.20,0.06,0.08
2017-11-13 02:00:00,2,7296,77,0.09,2,2,0,2,4483,9910,1740,7295,77,77,0,77,0.00,0.20,0.06,0.10
2017-11-13 02:10:00,2,8873,77,0.03,2,2,0,2,5528,12532,2082,8938,77,77,0,77,0.00,0.10,0.03,0.00
2017-11-13 02:20:00,2,7157,77,0.06,2,2,0,2,5121,10333,1315,7051,77,77,0,77,0.05,0.10,0.02,0.05
2017-11-13 02:30:00,2,5731,77,0.10,2,2,0,2,4268,6773,744,5742,77,77,0,77,0.05,0.15,0.03,0.10
2017-11-13 02:40:00,2,5745,77,0.11,2,2,0,2,4654,7058,645,5666,77,77,0,77,0.05,0.15,0.03,0.10
2017-11-13 02:50:00,2,4475,74,0.21,2,2,0,2,3332,5192,514,4514,71,77,3,74,0.10,0.30,0.06,0.23
2017-11-13 03:00:00,2,3950,71,0.33,2,2,0,2,2921,5121,672,3992,71,71,0,71,0.20,0.45,0.09,0.33
2017-11-13 03:10:00,2,4337,71,0.31,2,2,0,2,3526,5329,495,4183,71,71,0,71,0.20,0.50,0.09,0.30
2017-11-13 03:20:00,2,4735,71,0.17,2,2,0,2,3723,5966,708,4668,71,71,0,71,0.10,0.30,0.06,0.15
2017-11-13 03:30:00,2,3790,71,0.30,2,2,0,2,2841,5437,658,3736,71,71,0,71,0.15,0.50,0.10,0.28
2017-11-13 03:40:00,2,4452,71,0.21,2,2,0,2,3451,5681,625,4422,71,71,0,71,0.10,0.35,0.07,0.20
2017-11-13 03:50:00,2,4747,71,0.20,2,2,0,2,3940,6409,676,4619,71,71,0,71,0.10,0.30,0.07,0.20
2017-11-13 04:00:00,2,4030,71,0.23,2,2,0,2,3210,4444,357,4086,71,71,0,71,0.15,0.35,0.06,0.20
2017-11-13 04:10:00,2,4062,71,0.21,2,2,0,2,3457,4847,470,3997,71,71,0,71,0.10,0.30,0.06,0.23
2017-11-13 04:20:00,2,4352,72,0.21,2,2,0,2,3666,5074,340,4322,71,77,2,71,0.10,0.40,0.09,0.17
2017-11-13 04:30:00,2,4592,74,0.14,2,2,0,2,3903,5302,417,4586,71,77,3,74,0.05,0.20,0.05,0.15
2017-11-13 04:40:00,2,4860,77,0.15,2,2,0,2,4064,5997,588,4760,77,77,0,77,0.10,0.25,0.04,0.15
2017-11-13 04:50:00,2,5527,76,0.10,2,2,0,2,4892,6442,480,5470,71,77,2,77,0.05,0.15,0.04,0.10
2017-11-13 05:00:00,2,5362,77,0.11,2,2,0,2,4331,7972,1011,5212,77,77,0,77,0.05,0.15,0.03,0.10
2017-11-13 05:10:00,2,4416,75,0.19,2,2,0,2,3585,5587,648,4307,71,77,3,77,0.05,0.35,0.08,0.20
2017-11-13 05:20:00,2,3884,72,0.21,2,2,0,2,3325,4585,461,3946,71,77,2,71,0.15,0.30,0.06,0.20
2017-11-13 05:30:00,2,3824,75,0.18,2,2,0,2,3256,5530,627,3651,71,77,3,77,0.05,0.25,0.06,0.20
2017-11-13 05:40:00,2,3685,75,0.25,2,2,0,2,2598,5194,721,3642,71,77,3,77,0.05,0.55,0.15,0.17
2017-11-13 05:50:00,2,4014,77,0.27,2,2,0,2,3287,4862,506,4033,77,77,0,77,0.10,0.50,0.11,0.25
2017-11-13 06:00:00,2,4526,76,0.29,2,2,0,2,3534,6371,779,4476,71,77,2,77,0.20,0.40,0.07,0.28
2017-11-13 06:10:00,2,4983,72,0.12,2,2,0,2,4043,5911,613,4884,71,77,2,71,0.05,0.20,0.05,0.10
2017-11-13 06:20:00,2,5298,75,0.12,2,2,0,2,4445,6918,690,5189,71,77,3,77,0.05,0.20,0.04,0.10
2017-11-13 06:30:00,2,7681,77,0.07,2,2,0,2,6209,10003,1363,6859,77,77,0,77,0.05,0.10,0.02,0.05
2017-11-13 06:40:00,2,9984,77,0.03,2,2,0,2,7352,13770,1893,9739,77,77,0,77,0.00,0.05,0.02,0.05
2017-11-13 06:50:00,2,10543,77,0.02,2,2,0,2,8563,14430,1923,9646,77,77,0,77,0.00,0.05,0.02,0.00
2017-11-13 07:00:00,2,10216,77,0.04,2,2,0,2,7831,12861,1507,9854,77,78,0,77,0.00,0.05,0.02,0.05
2017-11-13 07:10:00,2,8933,77,0.04,2,2,0,2,7157,13543,2054,7950,77,78,0,77,0.00,0.05,0.02,0.05
2017-11-13 07:20:00,2,12018,78,0.01,2,2,0,2,10443,14162,1118,11895,77,78,0,78,0.00,0.05,0.02,0.00
2017-11-13 07:30:00,2,14042,77,0.01,2,2,0,2,11111,16801,1848,14272,77,78,0,77,0.00,0.05,0.02,0.00
2017-11-13 07:40:00,2,13745,77,0.00,2,2,0,2,11079,19721,2329,13400,77,77,0,77,0.00,0.00,0.00,0.00
2017-11-13 07:50:00,2,15465,77,0.01,2,2,0,2,13956,17214,942,15529,77,77,0,77,0.00,0.05,0.02,0.00
2017-11-13 08:00:00,2,11778,78,0.00,2,2,0,2,8885,15781,2000,11676,77,78,0,78,0.00,0.00,0.00,0.00
2017-11-13 08:10:00,2,13156,77,0.01,2,2,0,2,8271,22485,3632,12830,77,77,0,77,0.00,0.05,0.02,0.00
2017-11-13 08:20:00,2,8026,77,0.03,2,2,0,2,6485,10189,1040,7992,77,77,0,77,0.00,0.05,0.02,0.05
2017-11-13 08:30:00,2,8384,76,0.05,2,2,0,2,7520,9053,575,8589,71,77,2,77,0.00,0.10,0.02,0.05
2017-11-13 08:40:00,2,8645,75,0.04,2,2,0,2,6654,11717,1568,8759,71,77,3,77,0.00,0.10,0.04,0.05
2017-11-13 08:50:00,2,9016,77,0.01,2,2,0,2,6500,12104,1675,8434,77,77,0,77,0.00,0.05,0.02,0.00
2017-11-13 09:00:00,2,8765,77,0.04,2,2,0,2,6043,12643,1818,8523,77,77,0,77,0.00,0.10,0.03,0.05
2017-11-13 09:10:00,2,11637,76,0.02,2,2,0,2,6964,15605,2759,12016,71,78,3,78,0.00,0.10,0.03,0.00
2017-11-13 09:20:00,2,10912,77,0.00,2,2,0,2,9646,12765,879,10982,77,77,0,77,0.00,0.00,0.00,0.00
2017-11-13 09:30:00,2,13286,77,0.01,2,2,0,2,9894,17786,2227,12506,77,77,0,77,0.00,0.05,0.02,0.00
2017-11-13 09:40:00,2,13370,77,0.02,2,2,0,2,10924,15927,1630,13816,77,77,0,77,0.00,0.05,0.02,0.00
2017-11-13 09:50:00,2,7404,77,0.05,2,2,0,2,5310,8685,990,7355,77,77,0,77,0.00,0.10,0.03,0.05
2017-11-13 10:00:00,2,12202,77,0.02,2,2,0,2,8010,15806,2526,11845,77,77,0,77,0.00,0.05,0.02,0.00
2017-11-13 10:10:00,2,16617,78,0.01,2,2,0,2,11409,20040,2688,17408,77,78,0,78,0.00,0.05,0.02,0.00
2017-11-13 10:20:00,2,14463,78,0.00,2,2,0,2,12096,16256,1125,14289,78,78,0,78,0.00,0.00,0.00,0.00
2017-11-13 10:30:00,2,18532,78,0.00,2,2,0,2,15334,21736,2118,18126,77,78,0,78,0.00,0.00,0.00,0.00
2017-11-13 10:40:00,2,11926,78,0.00,2,2,0,2,8973,15615,1813,11422,77,78,0,78,0.00,0.00,0.00,0.00
2017-11-13 10:50:00,2,16421,70,0.00,2,2,0,2,13044,18598,1598,16806,0,78,23,78,0.00,0.00,0.00,0.00
2017-11-13 11:00:00,2,22212,7,0.00,2,2,0,2,19196,28604,2887,21418,0,71,21,0,0.00,0.00,0.00,0.00
2017-11-13 11:10:00,2,22426,77,0.00,2,2,0,2,18764,25576,1791,22679,71,78,2,78,0.00,0.00,0.00,0.00
2017-11-13 11:20:00,2,21157,78,0.00,2,2,0,2,13925,29288,4697,22412,78,78,0,78,0.00,0.00,0.00,0.00
2017-11-13 11:30:00,2,15724,78,0.00,2,2,0,2,10384,21311,3031,15984,78,78,0,78,0.00,0.00,0.00,0.00
2017-11-13 11:40:00,2,16026,74,0.02,2,2,0,2,12244,20165,2674,17086,71,78,4,74,0.00,0.10,0.03,0.00
2017-11-13 11:50:00,2,16398,78,0.01,2,2,0,2,12286,23474,3458,15438,77,78,0,78,0.00,0.05,0.02,0.00
2017-11-13 12:00:00,2,12468,72,0.08,2,2,0,2,10301,14277,1081,12670,71,78,2,71,0.00,0.20,0.07,0.05
2017-11-13 12:10:00,2,15094,74,0.07,2,2,0,2,9944,19977,2830,15380,71,78,3,71,0.00,0.35,0.10,0.03
2017-11-13 12:20:00,2,17810,71,0.04,2,2,0,2,14766,23053,2588,17020,71,71,0,71,0.00,0.20,0.06,0.03
2017-11-13 12:30:00,2,18006,71,0.06,2,2,0,2,11733,24265,4127,16148,71,71,0,71,0.00,0.25,0.08,0.03
2017-11-13 12:40:00,2,23987,76,0.01,2,2,0,2,19288,32843,4002,23206,71,77,2,77,0.00,0.05,0.02,0.00
2017-11-13 12:50:00,2,17618,76,0.02,2,2,0,2,10807,25921,5659,17826,71,78,3,77,0.00,0.10,0.03,0.00
2017-11-13 13:00:00,2,13410,76,0.03,2,2,0,2,11174,15916,1623,13720,71,78,3,77,0.00,0.10,0.03,0.00
2017-11-13 13:10:00,2,17634,77,0.03,2,2,0,2,14643,21536,2073,16887,71,78,2,78,0.00,0.15,0.05,0.00
2017-11-13 13:20:00,2,23629,74,0.01,2,2,0,2,20634,31165,2929,22564,71,78,3,74,0.00,0.05,0.02,0.00
2017-11-13 13:30:00,2,44418,75,0.01,2,2,0,2,33778,50000,4743,45776,71,78,3,77,0.00,0.05,0.02,0.00
2017-11-13 13:40:00,2,49919,23,0.00,2,2,0,2,49558,50000,162,50000,0,78,36,0,0.00,0.00,0.00,0.00
2017-11-13 13:50:00,2,50000,0,0.00,2,2,0,2,50000,50000,0,50000,0,0,0,0,0.00,0.00,0.00,0.00
2017-11-13 14:00:00,2,50000,0,0.00,2,2,0,2,50000,50000,0,50000,0,0,0,0,0.00,0.00,0.00,0.00
2017-11-13 14:10:00,2,50000,0,0.00,2,2,0,2,50000,50000,0,50000,0,0,0,0,0.00,0.00,0.00,0.00
2017-11-13 14:20:00,2,50000,0,0.00,2,2,0,2,50000,50000,0,50000,0,0,0,0,0.00,0.00,0.00,0.00
2017-11-13 14:30:00,2,50000,0,0.00,2,2,0,2,50000,50000,0,50000,0,0,0,0,0.00,0.00,0.00,0.00
2017-11-13 14:40:00,2,50000,0,0.00,2,2,0,2,50000,50000,0,50000,0,0,0,0,0.00,0.00,0.00,0.00
2017-11-13 14:50:00,2,50000,0,0.00,2,2,0,2,50000,50000,0,50000,0,0,0,0,0.00,0.00,0.00,0.00
2017-11-13 15:00:00,2,50000,0,0.00,2,2,0,2,50000,50000,0,50000,0,0,0,0,0.00,0.00,0.00,0.00
2017-11-13 15:10:00,2,50000,0,0.00,2,2,0,2,50000,50000,0,50000,0,0,0,0,0.00,0.00,0.00,0.00
2017-11-13 15:20:00,2,50000,0,0.00,2,2,0,2,50000,50000,0,50000,0,0,0,0,0.00,0.00,0.00,0.00
2017-11-13 15:30:00,2,50000,0,0.00,2,2,0,2,50000,50000,0,50000,0,0,0,0,0.00,0.00,0.00,0.00
2017-11-13 15:40:00,2,50000,0,0.00,2,2,0,2,50000,50000,0,50000,0,0,0,0,0.00,0.00,0.00,0.00
2017-11-13 15:50:00,2,50000,0,0.00,2,2,0,2,50000,50000,0,50000,0,0,0,0,0.00,0.00,0.00,0.00
2017-11-13 16:00:00,2,50000,0,0.00,2,2,0,2,50000,50000,0,50000,0,0,0,0,0.00,0.00,0.00,0.00
2017-11-13 16:10:00,2,50000,0,0.00,2,2,0,2,50000,50000,0,50000,0,0,0,0,0.00,0.00,0.00,0.00
2017-11-13 16:20:00,2,50000,0,0.00,2,2,0,2,50000,50000,0,50000,0,0,0,0,0.00,0.00,0.00,0.00
2017-11-13 16:30:00,2,50000,0,0.00,2,2,0,2,50000,50000,0,50000,0,0,0,0,0.00,0.00,0.00,0.00
2017-11-13 16:40:00,2,50000,0,0.00,2,2,0,2,50000,50000,0,50000,0,0,0,0,0.00,0.00,0.00,0.00
2017-11-13 16:50:00,2,50000,0,0.00,2,2,0,2,50000,50000,0,50000,0,0,0,0,0.00,0.00,0.00,0.00
2017-11-13 17:00:00,2,50000,0,0.00,2,2,0,2,50000,50000,0,50000,0,0,0,0,0.00,0.00,0.00,0.00
2017-11-13 17:10:00,2,50000,0,0.00,2,2,0,2,50000,50000,0,50000,0,0,0,0,0.00,0.00,0.00,0.00
2017-11-13 17:20:00,2,50000,0,0.00,2,2,0,2,50000,50000,0,50000,0,0,0,0,0.00,0.00,0.00,0.00
2017-11-13 17:30:00,2,50000,0,0.00,2,2,0,2,50000,50000,0,50000,0,0,0,0,0.00,0.00,0.00,0.00
2017-11-13 17:40:00,2,50000,0,0.00,2,2,0,2,50000,50000,0,50000,0,0,0,0,0.00,0.00,0.00,0.00
2017-11-13 17:50:00,2,50000,0,0.00,2,2,0,2,50000,50000,0,50000,0,0,0,0,0.00,0.00,0.00,0.00
2017-11-13 18:00:00,2,50000,0,0.00,2,2,0,2,50000,50000,0,50000,0,0,0,0,0.00,0.00,0.00,0.00
2017-11-13 18:10:00,2,50000,0,0.00,2,2,0,2,50000,50000,0,50000,0,0,0,0,0.00,0.00,0.00,0.00
2017-11-13 18:20:00,2,50000,0,0.00,2,2,0,2,50000,50000,0,50000,0,0,0,0,0.00,0.00,0.00,0.00
2017-11-13 18:30:00,2,50000,0,0.00,2,2,0,2,50000,50000,0,50000,0,0,0,0,0.00,0.00,0.00,0.00
2017-11-13 18:40:00,2,50000,0,0.00,2,2,0,2,50000,50000,0,50000,0,0,0,0,0.00,0.00,0.00,0.00
2017-11-13 18:50:00,2,50000,0,0.00,2,2,0,2,50000,50000,0,50000,0,0,0,0,0.00,0.00,0.00,0.00
2017-11-13 19:00:00,2,50000,0,0.00,2,2,0,2,50000,50000,0,50000,0,0,0,0,0.00,0.00,0.00,0.00
2017-11-13 19:10:00,2,50000,0,0.00,2,2,0,2,50000,50000,0,50000,0,0,0,0,0.00,0.00,0.00,0.00
2017-11-13 19:20:00,2,50000,0,0.00,2,2,0,2,50000,50000,0,50000,0,0,0,0,0.00,0.00,0.00,0.00
2017-11-13 19:30:00,2,50000,0,0.00,2,2,0,2,50000,50000,0,50000,0,0,0,0,0.00,0.00,0.00,0.00
2017-11-13 19:40:00,2,50000,0,0.00,2,2,0,2,50000,50000,0,50000,0,0,0,0,0.00,0.00,0.00,0.00
2017-11-13 19:50:00,2,50000,0,0.00,2,2,0,2,50000,50000,0,50000,0,0,0,0,0.00,0.00,0.00,0.00
2017-11-13 20:00:00,2,50000,0,0.00,2,2,0,2,50000,50000,0,50000,0,0,0,0,0.00,0.00,0.00,0.00
2017-11-13 20:10:00,2,50000,0,0.00,2,2,0,2,50000,50000,0,50000,0,0,0,0,0.00,0.00,0.00,0.00
2017-11-13 20:20:00,2,50000,0,0.00,2,2,0,2,50000,50000,0,50000,0,0,0,0,0.00,0.00,0.00,0.00
2017-11-13 20:30:00,2,50000,0,0.00,2,2,0,2,50000,50000,0,50000,0,0,0,0,0.00,0.00,0.00,0.00
2017-11-13 20:40:00,2,49899,0,0.00,2,2,0,2,48994,50000,302,50000,0,0,0,0,0.00,0.00,0.00,0.00
2017-11-13 20:50:00,2,49717,0,0.00,2,2,0,2,47167,50000,850,50000,0,0,0,0,0.00,0.00,0.00,0.00
2017-11-13 21:00:00,2,50000,0,0.00,2,2,0,2,50000,50000,0,50000,0,0,0,0,0.00,0.00,0.00,0.00
2017-11-13 21:10:00,2,50000,0,0.00,2,2,0,2,50000,50000,0,50000,0,0,0,0,0.00,0.00,0.00,0.00
2017-11-13 21:20:00,2,50000,0,0.00,2,2,0,2,50000,50000,0,50000,0,0,0,0,0.00,0.00,0.00,0.00
2017-11-13 21:30:00,2,46837,0,0.00,2,2,0,2,34387,50000,5410,49906,0,0,0,0,0.00,0.00,0.00,0.00
2017-11-13 21:40:00,2,50000,0,0.00,2,2,0,2,50000,50000,0,50000,0,0,0,0,0.00,0.00,0.00,0.00
2017-11-13 21:50:00,2,49496,0,0.00,2,2,0,2,47402,50000,848,50000,0,0,0,0,0.00,0.00,0.00,0.00
2017-11-13 22:00:00,2,48270,77,0.00,2,2,0,2,41636,50000,2433,49368,71,78,3,78,0.00,0.00,0.00,0.00
2017-11-13 22:10:00,2,37583,78,0.00,2,2,0,2,23555,46529,7451,39522,78,78,0,78,0.00,0.00,0.00,0.00
2017-11-13 22:20:00,2,39086,78,0.00,2,2,0,2,32652,45672,4223,39921,78,78,0,78,0.00,0.00,0.00,0.00
2017-11-13 22:30:00,2,44516,78,0.00,2,2,0,2,27098,50000,6870,47171,78,78,0,78,0.00,0.00,0.00,0.00
2017-11-13 22:40:00,2,15178,78,0.02,2,2,0,2,6061,24129,5502,14482,78,78,0,78,0.00,0.05,0.02,0.00
2017-11-13 22:50:00,2,7134,78,0.07,2,2,0,2,5357,9051,1297,6660,77,78,0,78,0.05,0.10,0.03,0.08
2017-11-13 23:00:00,2,7509,75,0.11,2,2,0,2,5968,9532,1233,7398,71,77,3,77,0.05,0.15,0.04,0.12
2017-11-13 23:10:00,2,9818,71,0.10,2,2,0,2,6097,18911,4467,8362,71,71,0,71,0.05,0.25,0.06,0.10
2017-11-13 23:20:00,2,11646,73,0.10,2,2,0,2,9161,15338,1940,11488,71,77,3,71,0.05,0.20,0.05,0.10
2017-11-13 23:30:00,2,18360,76,0.04,2,2,0,2,9628,25522,6328,19452,71,78,2,77,0.00,0.10,0.03,0.05
2017-11-13 23:40:00,2,16308,73,0.12,2,2,0,2,10716,24562,3491,16496,71,78,3,71,0.05,0.30,0.08,0.10
2017-11-13 23:50:00,2,12219,71,0.05,2,2,0,2,7915,16444,2425,12274,71,71,0,71,0.00,0.10,0.02,0.05
